TimePDT,TemperatureF,Dew PointF,Humidity,Sea Level PressureIn,VisibilityMPH,Wind Direction,Wind SpeedMPH,Gust SpeedMPH,PrecipitationIn,Events,Conditions,WindDirDegrees,DateUTC
12:53 AM,42.1,25.0,51,29.96,10.0,SSW,11.5,-,N/A,,Clear,210,2013-03-20 07:53:00
1:53 AM,42.1,26.1,53,29.92,10.0,SSW,11.5,-,N/A,,Partly Cloudy,200,2013-03-20 08:53:00
2:53 AM,43.0,25.0,49,29.89,10.0,South,13.8,-,N/A,,Clear,180,2013-03-20 09:53:00
3:53 AM,44.1,25.0,47,29.85,10.0,South,17.3,-,N/A,,Mostly Cloudy,180,2013-03-20 10:53:00
4:53 AM,44.1,25.0,47,29.83,10.0,SSW,13.8,-,N/A,,Overcast,200,2013-03-20 11:53:00
5:53 AM,45.0,24.1,44,29.85,10.0,SSW,11.5,-,N/A,,Overcast,210,2013-03-20 12:53:00
6:53 AM,43.0,24.1,47,29.89,10.0,South,6.9,-,N/A,,Overcast,170,2013-03-20 13:53:00
7:53 AM,46.0,24.1,42,29.89,10.0,South,9.2,-,N/A,,Overcast,180,2013-03-20 14:53:00
8:53 AM,48.9,24.1,38,29.90,10.0,SSE,8.1,-,N/A,,Overcast,150,2013-03-20 15:53:00
9:53 AM,52.0,21.9,31,29.88,10.0,South,8.1,-,N/A,,Partly Cloudy,180,2013-03-20 16:53:00
10:53 AM,55.0,21.9,28,29.88,10.0,SW,8.1,21.9,N/A,,Clear,220,2013-03-20 17:53:00
11:53 AM,55.9,23.0,28,29.85,10.0,SW,5.8,-,N/A,,Partly Cloudy,220,2013-03-20 18:53:00
1:53 PM,57.9,24.1,27,29.79,10.0,WSW,11.5,19.6,N/A,,Overcast,240,2013-03-20 20:53:00
2:46 PM,55.4,28.4,36,29.94,10.0,WSW,8.1,-,0.00,Rain,Light Rain,250,2013-03-20 21:46:00
2:53 PM,57.0,28.0,33,29.77,10.0,SW,10.4,-,0.00,,Mostly Cloudy,220,2013-03-20 21:53:00
3:53 PM,59.0,26.1,28,29.73,10.0,SW,11.5,17.3,N/A,,Clear,220,2013-03-20 22:53:00
4:53 PM,57.0,26.1,30,29.73,10.0,SW,6.9,-,N/A,,Overcast,230,2013-03-20 23:53:00
5:53 PM,52.0,30.9,45,29.74,10.0,Variable,5.8,19.6,0.00,Rain,Light Rain,0,2013-03-21 00:53:00
6:53 PM,46.9,32.0,56,29.75,10.0,South,8.1,-,0.00,,Clear,170,2013-03-21 01:53:00
7:53 PM,46.0,28.0,50,29.76,10.0,West,3.5,-,N/A,,Partly Cloudy,280,2013-03-21 02:53:00
8:53 PM,46.0,28.0,50,29.75,10.0,Variable,3.5,-,N/A,,Partly Cloudy,0,2013-03-21 03:53:00
9:53 PM,44.1,25.0,47,29.76,10.0,Calm,Calm,-,N/A,,Clear,0,2013-03-21 04:53:00
11:53 PM,39.9,24.1,53,29.75,10.0,Calm,Calm,-,N/A,,Clear,0,2013-03-21 06:53:00